Regional Weather Roundup
Issued by NWS

Home | Current Version | Previous Version | Text Only | Print | Product List | Glossary Off
Versions: 1 2 3 4 5 6 7 8 9 10 11 12 13 14 15 16 17 18 19 20 21 22 23 24 25 26 27 28 29 30 31 32 33 34 35 36 37 38 39 40 41 42 43 44 45 46 47 48 49 50

000
ASUS43 KLMK 242102
RWRKY
KENTUCKY REGIONAL WEATHER ROUNDUP
NATIONAL WEATHER SERVICE LOUISVILLE KY
500 PM EDT SUN MAY 24 2015

NOTE "FAIR" INDICATES FEW OR NO CLOUDS BELOW 12,000 FEET
WITH NO SIGNIFICANT WEATHER AND/OR OBSTRUCTIONS TO VISIBILITY.

KYZ001>023-026-027-061>063-070>075-242200-
WESTERN AND SOUTH CENTRAL KENTUCKY

CITY           SKY/WX    TMP DP  RH WIND       PRES   REMARKS
PADUCAH        PTSUNNY   85  65  51 S18G26    30.01F
HENDERSON      CLOUDY    84  63  48 S16G24    30.04F
OWENSBORO      MOSUNNY   86  65  49 S15G24    30.08F
HOPKINSVILLE   PTSUNNY   83  65  53 SE10G21   30.07F
BOWLING GREEN  MOSUNNY   85  61  44 SE15      30.12F
GLASGOW        NOT AVBL
$$

KYZ024-025-028>034-038-045-046-053-242200-
NORTH CENTRAL KENTUCKY

CITY           SKY/WX    TMP DP  RH WIND       PRES   REMARKS
LOUISVILLE/SDF MOSUNNY   85  59  41 SE16G23   30.13F
LOUISVILLE/LOU PTSUNNY   83  56  39 S10G20    30.14F
FORT KNOX      PTSUNNY   82  61  49 SE13      30.12F
$$

KYZ035>037-039>044-047>052-055>060-089>105-242200-
NORTHEAST KENTUCKY

CITY           SKY/WX    TMP DP  RH WIND       PRES   REMARKS
LEXINGTON      SUNNY     83  54  36 S8G21     30.19F
COVINGTON      MOSUNNY   83  54  36 SE16G22   30.16F
FRANKFORT      SUNNY     83  54  36 S9G18     30.17F
$$

KYZ054-064>069-076>088-106>120-242200-
SOUTHEAST KENTUCKY

CITY           SKY/WX    TMP DP  RH WIND       PRES   REMARKS
JACKSON        SUNNY     83  53  35 VRB3      30.23F
LONDON         SUNNY     82  44  26 SE9G18    30.22F
SOMERSET       NOT AVBL
MIDDLESBORO    SUNNY     83  51  33 S6        30.24F
MONTICELLO     PTCLDY    83  59  44 S10       30.22F
$$




USA.gov is the U.S. government's official web portal to all federal, state and local government web resources and services.